Regional Weather Roundup
Issued by NWS

Home | Current Version | Previous Version | Text Only | Print | Product List | Glossary Off
Versions: 1 2 3 4 5 6 7 8 9 10 11 12 13 14 15 16 17 18 19 20 21 22 23 24 25 26 27 28 29 30 31 32 33 34 35 36 37 38 39 40 41 42 43 44 45 46 47 48 49 50

000
ASUS43 KLOT 290110
RWRIL

ILLINOIS REGIONAL WEATHER ROUNDUP
NATIONAL WEATHER SERVICE CHICAGO/ROMEOVILLE IL
800 PM CDT MON JUL 28 2014

NOTE: "FAIR" INDICATES FEW OR NO CLOUDS BELOW 12,000 FEET WITH NO
SIGNIFICANT WEATHER AND/OR OBSTRUCTIONS TO VISIBILITY.

* THESE STATIONS ARE NOT UNDER NWS QUALITY CONTROL. THEY ALSO MAY NOT
  REPORT WEATHER SUCH AS PRECIPITATION OR FOG.

ILZ001-002-007-009-015-016-024-290200-
NORTHWEST ILLINOIS

CITY           SKY/WX    TMP DP  RH WIND       PRES   REMARKS
MOLINE         CLEAR     70  49  47 NW5       30.11S
STERLING*      CLEAR     66  54  63 NW7       30.10F
SAVANNA*       CLEAR     70  53  54 NW5       30.10F
$$

ILZ003-004-008-010-011-017-018-290200-
NORTH CENTRAL ILLINOIS

CITY           SKY/WX    TMP DP  RH WIND       PRES   REMARKS
ROCKFORD       PTCLDY    68  53  58 W6        30.10S
FREEPORT*      CLEAR     64  52  66 W3        30.11F
ROCHELLE*      CLEAR     67  54  63 W5        30.09S
DE KALB*       CLEAR     64  52  66 W5        30.09S
PERU*          PTCLDY    66  54  65 W5        30.10S
$$

ILZ005-006-012>014-019>023-290200-
NORTHEAST ILLINOIS

CITY           SKY/WX    TMP DP  RH WIND       PRES   REMARKS
CHICAGO-OHARE  MOCLDY    66  49  54 E7        30.06F
CHICAGO-MIDWAY PTCLDY    66  51  58 E7        30.06F
AURORA         CLEAR     64  55  72 W3        30.08S
LANSING*       CLEAR     62  49  62 NE6       30.08S
JOLIET*        CLEAR     67  49  51 CALM      30.08S
WAUKEGAN       MOCLDY    59  50  72 CALM      30.06S
DUPAGE AIRPORT CLEAR     67  51  56 W8        30.06F
KANKAKEE*      CLEAR     63  54  72 CALM      30.09R
WHEELING       CLEAR     63  50  62 E5        30.08S
MORRIS*        CLEAR     65  56  72 NW3       30.08S
ROMEOVILLE*    PTCLDY    65  50  57 NW5       30.07S
NORTHERLY ISL    N/A     60  50  69 N3          N/A
$$

LMZ740>746-290200-
SOUTHERN LAKE MICHIGAN

STATION/POSITION SKY/WX   TEMP    WIND        PRES    VSBY  WAVE
                          AIR SEA DIR/SP/G                  HT/PER
                          (F)     (DEG/KT/KT) (MB)    (MI)  (FT/S)
SOUTHERN BUOY              60 60   20/  6/  8 1017.7F         4/ 6
WAUKEGAN HARBOR            61     120/  3/  3   N/A
HARRISON CRIB              61      20/  4/  5   N/A
BURNHAM HARBOR             61      10/  3/  9   N/A
CALUMET HARBOR             62     360/  4/  6 1017.1F
MICHIGAN CITY              63     360/ 20/ 22   N/A
MICHIGAN CITY 6N           64 67   20/ 12/ 17   N/A           8/ 7
ST. JOSEPH                 61 66   20/  8/ 12   N/A           6/ 6
$$

ILZ025>027-034>036-040-047-049-050-058-095>099-290200-
WEST-CENTRAL ILLINOIS

CITY           SKY/WX    TMP DP  RH WIND       PRES   REMARKS
QUINCY         CLEAR     67  54  63 NE3       30.13S
GALESBURG*     CLEAR     70  57  63 CALM      30.12F
MACOMB*        CLEAR     66  58  75 CALM      30.14F
JACKSONVILLE*  CLEAR     67  56  68 N5        30.13S
PITTSFIELD*    CLEAR     67  55  64 CALM      30.13S
$$

ILZ028>032-037-038-041>044-048-051>054-059>061-290200-
CENTRAL ILLINOIS

CITY           SKY/WX    TMP DP  RH WIND       PRES   REMARKS
PONTIAC        CLEAR     64  57  77 CALM      30.09S
DECATUR        MOCLDY    66  53  63 N8        30.10S
PEORIA         CLEAR     69  51  52 NW3       30.11F
LACON*         CLEAR     66  53  63 CALM      30.10S
LINCOLN*       MOCLDY    67  55  64 N3        30.09S
SPRINGFIELD    PTCLDY    67  54  63 N6        30.11S
TAYLORVILLE    CLEAR     63  54  72 NW6       30.10S
$$

ILZ033-039-045-046-055>057-062-063-290200-
EAST-CENTRAL ILLINOIS

CITY           SKY/WX    TMP DP  RH WIND       PRES   REMARKS
CHAMPAIGN      MOCLDY    63  52  67 N5        30.10S
DANVILLE*      CLEAR     60  53  80 CALM      30.07S
RANTOUL*       MOCLDY    68  46  45 CALM      30.11S
MATTOON        CLEAR     65  53  65 N8        30.08S
PARIS*         CLEAR     62  51  67 N3        30.10S
$$

ILZ079-100>102-290200-
SOUTHWEST ILLINOIS

CITY           SKY/WX    TMP DP  RH WIND       PRES   REMARKS
ALTON          PTCLDY    70  55  60 N6        30.11S
BELLEVILLE     PTCLDY    71  56  58 N10       30.09R
CAHOKIA*       MOCLDY    73  54  51 N12       30.10R
SPARTA*        CLOUDY    70  55  60 N7        30.10R
$$

ILZ064>066-069>071-074>076-080>082-084>086-088>090-092>094-290200-
SOUTH-CENTRAL ILLINOIS

CITY           SKY/WX    TMP DP  RH WIND       PRES   REMARKS
CARBONDALE     CLOUDY    73  57  57 N10       30.07R
CAIRO*         PTCLDY    75  63  65 N7        30.05R
EFFINGHAM*     CLEAR     67  50  54 N5        30.09R
MARION         CLOUDY    73  59  60 N6        30.08R
MT. VERNON     PTCLDY    70  54  56 N5        30.09R
CENTRALIA*     CLEAR     69  52  54 N7        30.09R
SALEM*         CLEAR    N/A N/A N/A N8        30.09S
METROPOLIS*    MOCLDY    74  56  52 N3        30.04S
$$

ILZ067-068-072-073-078-083-087-091-290200-
SOUTHEAST ILLINOIS

CITY           SKY/WX    TMP DP  RH WIND       PRES   REMARKS
LAWRENCEVILLE  CLEAR     68  55  63 NW8       30.06R
FLORA*         CLEAR     67  52  58 N8        30.08S
FAIRFIELD*     CLEAR     70  57  64 N5        30.07R
HARRISBURG*    CLEAR     71  57  62 N6        30.07S
ROBINSON*      CLEAR     69  56  64 N8        30.07R
CARMI*         CLEAR     72  57  60 N9        30.05S
$$

ABBREVIATIONS USED IN REMARKS
   TC - TEMPERATURE IN CELSIUS
  WCI - WIND CHILL INDEX
   HX - HEAT INDEX
  VSB - VISIBILITY
$$



USA.gov is the U.S. government's official web portal to all federal, state and local government web resources and services.